TimeEDT,TemperatureF,Dew PointF,Humidity,Sea Level PressureIn,VisibilityMPH,Wind Direction,Wind SpeedMPH,Gust SpeedMPH,PrecipitationIn,Events,Conditions,WindDirDegrees,DateUTC
12:15 AM,65.8,57.2,74,29.92,10.0,WSW,5.8,-,N/A,,Clear,240,2012-09-07 04:15:00
12:34 AM,65.5,57.2,75,29.93,10.0,West,5.8,-,N/A,,Clear,260,2012-09-07 04:34:00
12:55 AM,65.3,57.2,75,29.93,10.0,West,5.8,-,N/A,,Clear,270,2012-09-07 04:55:00
1:14 AM,65.3,57.2,75,29.92,10.0,West,4.6,-,N/A,,Clear,270,2012-09-07 05:14:00
1:35 AM,63.5,56.5,78,29.92,10.0,West,4.6,-,N/A,,Clear,260,2012-09-07 05:35:00
1:55 AM,63.5,56.7,78,29.92,10.0,West,6.9,-,N/A,,Clear,280,2012-09-07 05:55:00
2:14 AM,61.3,55.6,81,29.91,10.0,West,5.8,-,N/A,,Clear,280,2012-09-07 06:14:00
2:35 AM,61.9,56.3,82,29.90,10.0,West,3.5,-,N/A,,Clear,280,2012-09-07 06:35:00
2:55 AM,62.1,56.5,82,29.91,10.0,West,3.5,-,N/A,,Clear,280,2012-09-07 06:55:00
3:14 AM,60.8,55.6,83,29.90,10.0,West,3.5,-,N/A,,Clear,280,2012-09-07 07:14:00
3:35 AM,59.0,54.5,85,29.89,10.0,Calm,Calm,-,N/A,,Clear,0,2012-09-07 07:35:00
3:55 AM,59.2,55.0,86,29.91,10.0,West,3.5,-,N/A,,Clear,270,2012-09-07 07:55:00
4:14 AM,60.3,56.5,87,29.91,10.0,West,3.5,-,N/A,,Clear,280,2012-09-07 08:14:00
4:35 AM,60.8,56.7,86,29.90,10.0,Calm,Calm,-,N/A,,Clear,0,2012-09-07 08:35:00
4:55 AM,59.7,55.4,86,29.90,10.0,Calm,Calm,-,N/A,,Clear,0,2012-09-07 08:55:00
5:14 AM,59.0,55.0,87,29.89,10.0,WSW,3.5,-,N/A,,Clear,250,2012-09-07 09:14:00
5:35 AM,59.2,55.6,88,29.90,10.0,Calm,Calm,-,N/A,,Clear,0,2012-09-07 09:35:00
5:55 AM,59.4,55.8,88,29.89,10.0,Calm,Calm,-,N/A,,Clear,0,2012-09-07 09:55:00
6:15 AM,60.1,55.9,86,29.90,10.0,Calm,Calm,-,N/A,,Clear,0,2012-09-07 10:15:00
6:35 AM,59.4,55.6,87,29.89,10.0,Calm,Calm,-,N/A,,Clear,0,2012-09-07 10:35:00
6:54 AM,59.0,55.6,88,29.90,10.0,West,3.5,-,N/A,,Clear,260,2012-09-07 10:54:00
7:15 AM,59.2,55.8,88,29.90,10.0,WSW,3.5,-,N/A,,Clear,250,2012-09-07 11:15:00
7:35 AM,60.1,56.7,88,29.89,10.0,Calm,Calm,-,N/A,,Clear,0,2012-09-07 11:35:00
7:54 AM,59.9,56.3,88,29.90,7.0,WSW,3.5,-,N/A,,Clear,250,2012-09-07 11:54:00
8:15 AM,60.3,56.8,88,29.91,10.0,Calm,Calm,-,N/A,,Clear,0,2012-09-07 12:15:00
8:35 AM,61.2,57.2,87,29.92,10.0,West,4.6,-,N/A,,Clear,270,2012-09-07 12:35:00
8:54 AM,61.3,57.2,86,29.91,10.0,Calm,Calm,-,N/A,,Clear,0,2012-09-07 12:54:00
9:15 AM,62.1,57.7,86,29.92,10.0,WSW,3.5,-,N/A,,Clear,240,2012-09-07 13:15:00
9:34 AM,63.0,58.1,84,29.93,10.0,West,4.6,-,N/A,,Clear,260,2012-09-07 13:34:00
9:55 AM,64.0,57.7,80,29.93,10.0,Calm,Calm,-,N/A,,Clear,0,2012-09-07 13:55:00
10:15 AM,65.8,57.4,74,29.93,10.0,Calm,Calm,-,N/A,,Clear,0,2012-09-07 14:15:00
10:34 AM,66.6,57.6,73,29.94,10.0,WSW,3.5,-,N/A,,Clear,240,2012-09-07 14:34:00
10:55 AM,67.3,57.2,70,29.93,10.0,Calm,Calm,-,N/A,,Clear,0,2012-09-07 14:55:00
11:15 AM,69.1,55.6,62,29.92,10.0,Calm,Calm,-,N/A,,Clear,0,2012-09-07 15:15:00
11:34 AM,69.4,55.9,62,29.91,10.0,Calm,Calm,-,N/A,,Clear,0,2012-09-07 15:34:00
11:55 AM,70.7,56.8,61,29.91,10.0,Calm,Calm,-,N/A,,Clear,0,2012-09-07 15:55:00
12:14 PM,70.7,56.7,61,29.89,10.0,Calm,Calm,-,N/A,,Clear,0,2012-09-07 16:14:00
12:35 PM,70.5,57.4,63,29.90,10.0,Calm,Calm,-,N/A,,Clear,0,2012-09-07 16:35:00
12:55 PM,71.8,57.0,60,29.91,10.0,Calm,Calm,-,N/A,,Clear,0,2012-09-07 16:55:00
1:14 PM,72.9,56.8,57,29.90,10.0,SW,3.5,-,N/A,,Clear,220,2012-09-07 17:14:00
1:35 PM,72.1,56.8,58,29.88,10.0,Calm,Calm,-,N/A,,Scattered Clouds,0,2012-09-07 17:35:00
1:55 PM,72.5,57.0,58,29.85,10.0,NE,4.6,-,N/A,,Overcast,50,2012-09-07 17:55:00
2:14 PM,72.1,57.4,60,29.83,10.0,ENE,4.6,-,N/A,,Overcast,60,2012-09-07 18:14:00
2:35 PM,74.1,56.7,54,29.83,10.0,SSE,3.5,-,N/A,,Mostly Cloudy,160,2012-09-07 18:35:00
2:55 PM,77.0,54.7,46,29.84,10.0,South,5.8,-,N/A,,Scattered Clouds,170,2012-09-07 18:55:00
3:14 PM,78.1,52.9,41,29.83,10.0,SSE,8.1,-,N/A,,Clear,150,2012-09-07 19:14:00
3:40 PM,77.4,51.1,40,29.80,10.0,SE,3.5,-,N/A,,Scattered Clouds,140,2012-09-07 19:40:00
3:59 PM,79.0,51.1,38,29.80,10.0,Calm,Calm,-,N/A,,Scattered Clouds,0,2012-09-07 19:59:00
4:15 PM,78.1,50.7,38,29.80,10.0,SSE,5.8,-,N/A,,Scattered Clouds,160,2012-09-07 20:15:00
4:35 PM,77.9,50.9,39,29.78,10.0,SSE,4.6,-,N/A,,Mostly Cloudy,160,2012-09-07 20:35:00
4:54 PM,78.4,50.2,37,29.77,10.0,SSE,8.1,-,N/A,,Scattered Clouds,150,2012-09-07 20:54:00
5:15 PM,80.2,50.7,36,29.76,10.0,SE,6.9,-,N/A,,Clear,140,2012-09-07 21:15:00
5:54 PM,79.3,54.5,42,29.74,10.0,SSE,10.4,-,N/A,,Clear,160,2012-09-07 21:54:00
6:15 PM,78.8,57.4,48,29.72,10.0,South,10.4,-,N/A,,Clear,170,2012-09-07 22:15:00
6:35 PM,77.9,58.3,51,29.71,10.0,South,10.4,-,N/A,,Clear,180,2012-09-07 22:35:00
6:54 PM,77.5,59.0,53,29.71,10.0,South,4.6,-,N/A,,Clear,180,2012-09-07 22:54:00
7:15 PM,77.2,59.2,54,29.71,10.0,Calm,Calm,-,N/A,,Mostly Cloudy,0,2012-09-07 23:15:00
7:34 PM,76.3,59.2,55,29.70,10.0,SW,3.5,-,N/A,,Mostly Cloudy,230,2012-09-07 23:34:00
7:55 PM,76.5,58.3,53,29.69,10.0,SSW,4.6,-,N/A,,Mostly Cloudy,200,2012-09-07 23:55:00
8:15 PM,76.1,57.4,52,29.67,10.0,South,9.2,-,N/A,Rain,Light Rain,190,2012-09-08 00:15:00
8:34 PM,74.5,57.9,56,29.68,10.0,SW,12.7,17.3,N/A,Rain,Rain,220,2012-09-08 00:34:00
8:55 PM,70.9,60.4,69,29.71,10.0,NW,17.3,31.1,N/A,Rain,Rain,320,2012-09-08 00:55:00
9:15 PM,66.4,62.1,86,29.72,4.0,NNW,13.8,18.4,N/A,Rain,Heavy Rain,330,2012-09-08 01:15:00
9:34 PM,63.9,59.7,86,29.75,5.0,NW,13.8,20.7,N/A,Rain,Heavy Rain,320,2012-09-08 01:34:00
9:55 PM,61.7,57.6,86,29.76,5.0,NNW,12.7,17.3,N/A,Rain,Rain,330,2012-09-08 01:55:00
10:15 PM,60.8,57.2,88,29.76,10.0,NNW,6.9,-,N/A,Rain,Light Rain,340,2012-09-08 02:15:00
10:34 PM,61.0,57.0,87,29.75,10.0,North,5.8,-,N/A,Rain,Light Rain,350,2012-09-08 02:34:00
10:55 PM,60.8,57.4,88,29.75,10.0,North,5.8,-,N/A,Rain,Light Rain,350,2012-09-08 02:55:00
11:14 PM,60.8,57.6,89,29.75,10.0,North,5.8,-,N/A,,Light Drizzle,350,2012-09-08 03:14:00
11:35 PM,61.2,57.7,88,29.75,10.0,NNW,4.6,-,N/A,Rain,Rain,330,2012-09-08 03:35:00
11:55 PM,61.2,57.7,88,29.75,7.0,NW,5.8,-,N/A,Rain,Rain,320,2012-09-08 03:55:00